Overview Statistics Trail Chart Weather Telemetry Raw packets
 

This is the latest recevied weather packets stored in our database for station/object KE8WMS. If no packets are shown the sender has not sent any weather packets the latest 10 day(s).

<< 17 18 19 20 21 22 23 >>
Time Temp. Humidity Pressure Rain* Wind** Luminosity Snow
1777706529 3.33° C 99% 1012.8 hPa 0 mm - 0 W/m² -
1777706227 3.33° C 99% 1013 hPa 0 mm - 0 W/m² -
1777705925 3.33° C 99% 1013.2 hPa 0 mm - 0 W/m² -
1777705623 3.33° C 99% 1013.2 hPa 0 mm - 0 W/m² -
1777705320 2.78° C 99% 1013.1 hPa 0 mm - 0 W/m² -
1777705019 2.78° C 99% 1013 hPa 0 mm - 0 W/m² -
1777704715 2.78° C 99% 1013 hPa 0 mm - 0 W/m² -
1777704414 2.78° C 99% 1013.1 hPa 0 mm - 0 W/m² -
1777704111 2.78° C 99% 1013 hPa 0 mm - 0 W/m² -
1777703809 2.78° C 98% 1013.3 hPa 0 mm - 0 W/m² -
1777703507 2.78° C 98% 1012.9 hPa 0 mm - 0 W/m² -
1777703203 2.78° C 98% 1013.1 hPa 0 mm - 0 W/m² -
1777702901 2.78° C 98% 1013 hPa 1.78 mm - 0 W/m² -
1777702599 2.78° C 98% 1013.1 hPa 3.56 mm - 0 W/m² -
1777702296 2.78° C 98% 1013.1 hPa 4.83 mm - 0 W/m² -
1777701996 2.78° C 98% 1013.3 hPa 6.1 mm - 0 W/m² -
1777701693 3.33° C 98% 1013.4 hPa 7.11 mm - 0 W/m² -
1777701391 3.33° C 98% 1013.5 hPa 7.11 mm - 0 W/m² -
1777701089 3.33° C 98% 1013.6 hPa 6.1 mm - 0 W/m² -
1777700788 3.33° C 98% 1013.6 hPa 6.6 mm - 0 W/m² -
1777700485 3.33° C 98% 1013.6 hPa 3.56 mm - 0 W/m² -
1777700182 3.33° C 98% 1013.6 hPa 0 mm - 0 W/m² -
1777699879 3.89° C 98% 1013.7 hPa 0 mm - 0 W/m² -
1777699577 3.33° C 98% 1013.3 hPa 0 mm - 0 W/m² -
1777699275 3.33° C 98% 1013.6 hPa 0 mm - 0 W/m² -

* Rain latest hour (hover to see other rain measurements)
** Current wind speed in m/s (hover to see current wind gust speed)